RADUGA 10 (12897 NORAD) Tracking and Keplerian Element Data

This shows tracking and keplerian element data for the satellite.

Feedback or suggestion? Click here.




ElementValue
Catalog12897
NameRADUGA 10
Epoch Orbit11554
Epoch Day353.92205988
Epoch Year2025
RAAN296.3346
Inclination7.1265
Eccentricity0.000382
Argument of Perigee269.4193
Mean Anonmoly279.516
Mean Motion1.00271919
Decay Rate3.6E-07
L11 12897U 81102A 25353.92205988 .00000036 00000+0 00000+0 0 9997
L22 12897 7.1265 296.3346 0003820 269.4193 279.5160 1.00271919115546



Live tracking and technical data element details for RADUGA 10 (NORAD 12897). RADUGA 10 can be tracked NOW for your location showing map with azimuth and elevation plus other details from your city location.







IsCatalogInMostPopularTable: catalog: 12897, numindb: 330
Update: records affected: 1



GetName: 12897 RADUGA 10

Hit Count: updated at: Mon, 18 May 2026 08:48:55 GMT